| time (UTC) | temp F | wind direction | speed MPH | gust MPH | rain 1hr in | rain 24hr in | rain mn in | humidity % | barometer mb |
| 20260503204916 | 54 | 176 | 2.0 | 8.0 | 0.00 | 0.00 | 0.00 | 49 | 1019.3 |
| 20260503204413 | 53 | 181 | 5.0 | 15.0 | 0.00 | 0.00 | 0.00 | 47 | 1019.3 |
| 20260503203910 | 54 | 183 | 3.0 | 15.0 | 0.00 | 0.00 | 0.00 | 47 | 1019.5 |
| 20260503203408 | 53 | 60 | 2.0 | 8.0 | 0.00 | 0.00 | 0.00 | 49 | 1019.5 |
| 20260503202904 | 53 | 186 | 4.0 | 13.0 | 0.00 | 0.00 | 0.00 | 48 | 1019.5 |
| 20260503202403 | 53 | 173 | 5.0 | 16.0 | 0.00 | 0.00 | 0.00 | 48 | 1019.4 |
| 20260503201901 | 53 | 199 | 6.0 | 11.0 | 0.00 | 0.00 | 0.00 | 47 | 1019.7 |
| 20260503201357 | 53 | 194 | 5.0 | 12.0 | 0.00 | 0.00 | 0.00 | 48 | 1019.4 |
| 20260503200855 | 53 | 86 | 8.0 | 17.0 | 0.00 | 0.00 | 0.00 | 48 | 1019.7 |
| 20260503200350 | 54 | 48 | 2.0 | 11.0 | 0.00 | 0.00 | 0.00 | 47 | 1019.4 |
| 20260503195848 | 54 | 160 | 3.0 | 9.0 | 0.00 | 0.00 | 0.00 | 48 | 1019.5 |
| 20260503195344 | 53 | 247 | 2.0 | 15.0 | 0.00 | 0.00 | 0.00 | 49 | 1019.3 |
| 20260503194842 | 53 | 187 | 4.0 | 13.0 | 0.00 | 0.00 | 0.00 | 49 | 1019.4 |
| 20260503194337 | 53 | 172 | 4.0 | 9.0 | 0.00 | 0.00 | 0.00 | 48 | 1019.6 |
| 20260503193834 | 52 | 167 | 3.0 | 12.0 | 0.00 | 0.00 | 0.00 | 49 | 1019.6 |
| 20260503193330 | 53 | 185 | 5.0 | 10.0 | 0.00 | 0.00 | 0.00 | 49 | 1019.7 |
| 20260503192826 | 52 | 151 | 5.0 | 17.0 | 0.00 | 0.00 | 0.00 | 49 | 1019.8 |
| 20260503192322 | 52 | 90 | 2.0 | 9.0 | 0.00 | 0.00 | 0.00 | 50 | 1019.7 |
| 20260503191818 | 51 | 166 | 9.0 | 12.0 | 0.00 | 0.00 | 0.00 | 51 | 1019.6 |
| 20260503191315 | 52 | 170 | 2.0 | 12.0 | 0.00 | 0.00 | 0.00 | 50 | 1019.4 |
| 20260503190812 | 51 | 159 | 3.0 | 12.0 | 0.00 | 0.00 | 0.00 | 51 | 1019.8 |
| 20260503190309 | 52 | 95 | 4.0 | 8.0 | 0.00 | 0.00 | 0.00 | 51 | 1019.7 |
| 20260503185806 | 52 | 152 | 6.0 | 9.0 | 0.00 | 0.00 | 0.00 | 50 | 1019.7 |
| 20260503185304 | 51 | 167 | 3.0 | 9.0 | 0.00 | 0.00 | 0.00 | 50 | 1019.5 |
| 20260503184801 | 51 | 125 | 2.0 | 9.0 | 0.00 | 0.00 | 0.00 | 49 | 1019.6 |
| 20260503184258 | 51 | 63 | 0.0 | 14.0 | 0.00 | 0.00 | 0.00 | 51 | 1019.6 |
| 20260503183754 | 51 | 147 | 2.0 | 7.0 | 0.00 | 0.00 | 0.00 | 51 | 1019.7 |
| 20260503183252 | 51 | 139 | 2.0 | 16.0 | 0.00 | 0.00 | 0.00 | 51 | 1019.6 |
| 20260503182749 | 51 | 63 | 0.0 | 9.0 | 0.00 | 0.00 | 0.00 | 51 | 1019.7 |
| 20260503182248 | 51 | 242 | 0.0 | 14.0 | 0.00 | 0.00 | 0.00 | 51 | 1019.6 |
| 20260503181744 | 50 | 151 | 4.0 | 5.0 | 0.00 | 0.00 | 0.00 | 51 | 1019.6 |
| 20260503181242 | 50 | 30 | 2.0 | 7.0 | 0.00 | 0.00 | 0.00 | 52 | 1019.8 |
| 20260503180738 | 50 | 127 | 0.0 | 10.0 | 0.00 | 0.00 | 0.00 | 52 | 1019.9 |
| 20260503180236 | 50 | 60 | 3.0 | 7.0 | 0.00 | 0.00 | 0.00 | 52 | 1019.8 |
| 20260503175732 | 50 | 141 | 4.0 | 7.0 | 0.00 | 0.00 | 0.00 | 52 | 1019.7 |
| 20260503175231 | 50 | 148 | 4.0 | 8.0 | 0.00 | 0.00 | 0.00 | 52 | 1019.7 |
| 20260503174726 | 50 | 90 | 2.0 | 11.0 | 0.00 | 0.00 | 0.00 | 53 | 1020.0 |
| 20260503174224 | 50 | 68 | 4.0 | 11.0 | 0.00 | 0.00 | 0.00 | 52 | 1019.8 |
| 20260503173719 | 50 | 82 | 2.0 | 5.0 | 0.00 | 0.00 | 0.00 | 53 | 1019.9 |
| 20260503173215 | 50 | 96 | 3.0 | 5.0 | 0.00 | 0.00 | 0.00 | 53 | 1020.0 |
| 20260503172712 | 49 | 57 | 2.0 | 9.0 | 0.00 | 0.00 | 0.00 | 54 | 1019.8 |
| 20260503172209 | 49 | 78 | 0.0 | 6.0 | 0.00 | 0.00 | 0.00 | 55 | 1019.9 |
| 20260503171706 | 48 | 160 | 1.0 | 6.0 | 0.00 | 0.00 | 0.00 | 55 | 1019.9 |
| 20260503171203 | 49 | 126 | 3.0 | 8.0 | 0.00 | 0.00 | 0.00 | 55 | 1019.9 |
| 20260503170700 | 49 | 325 | 0.0 | 3.0 | 0.00 | 0.00 | 0.00 | 57 | 1019.8 |
| 20260503170157 | 49 | 90 | 0.0 | 3.0 | 0.00 | 0.00 | 0.00 | 57 | 1019.9 |
| 20260503160118 | 46 | 169 | 3.0 | 5.0 | 0.00 | 0.00 | 0.00 | 60 | 1019.9 |
| 20260503150548 | 44 | 355 | 1.0 | 4.0 | 0.00 | 0.00 | 0.00 | 65 | 1020.3 |
| 20260503130938 | 45 | 154 | 6.0 | 6.0 | 0.00 | 0.00 | 0.00 | 61 | 1020.3 |
| 20260503130436 | 45 | 275 | 2.0 | 11.0 | 0.00 | 0.00 | 0.00 | 61 | 1020.5 |
| 20260503110326 | 45 | 277 | 0.0 | 9.0 | 0.00 | 0.00 | 0.00 | 62 | 1021.4 |
| 20260503100252 | 44 | 331 | 3.0 | 12.0 | 0.00 | 0.00 | 0.00 | 64 | 1020.8 |
| 20260503090212 | 45 | 127 | 3.0 | 7.0 | 0.00 | 0.00 | 0.00 | 62 | 1020.4 |
| 20260503081138 | 46 | 140 | 5.0 | 9.0 | 0.00 | 0.00 | 0.00 | 61 | 1020.3 |
| 20260503080635 | 46 | 78 | 3.0 | 9.0 | 0.00 | 0.00 | 0.00 | 60 | 1020.0 |
| 20260503080132 | 46 | 148 | 7.0 | 17.0 | 0.00 | 0.00 | 0.00 | 61 | 1020.3 |
| 20260503072609 | 46 | 103 | 3.0 | 5.0 | 0.00 | 0.00 | 0.00 | 60 | 1019.9 |
| 20260503072106 | 46 | 138 | 3.0 | 12.0 | 0.00 | 0.00 | 0.00 | 60 | 1019.8 |
| 20260503071603 | 46 | 48 | 4.0 | 12.0 | 0.00 | 0.00 | 0.00 | 60 | 1019.9 |
| 20260503071059 | 46 | 165 | 2.0 | 6.0 | 0.00 | 0.00 | 0.00 | 60 | 1019.8 |
| 20260503070556 | 46 | 138 | 5.0 | 12.0 | 0.00 | 0.00 | 0.00 | 60 | 1019.8 |
| 20260503055015 | 47 | 135 | 7.0 | 15.0 | 0.00 | 0.00 | 0.00 | 60 | 1019.3 |
| 20260503054510 | 47 | 135 | 4.0 | 10.0 | 0.00 | 0.00 | 0.00 | 60 | 1019.1 |
| 20260503054008 | 47 | 135 | 7.0 | 15.0 | 0.00 | 0.00 | 0.00 | 60 | 1019.2 |
| 20260503053506 | 47 | 156 | 5.0 | 13.0 | 0.00 | 0.00 | 0.00 | 61 | 1019.0 |
| 20260503053003 | 47 | 23 | 0.0 | 11.0 | 0.00 | 0.00 | 0.00 | 61 | 1019.0 |
| 20260503052500 | 47 | 155 | 5.0 | 11.0 | 0.00 | 0.00 | 0.00 | 60 | 1019.1 |
| 20260503051956 | 47 | 93 | 3.0 | 12.0 | 0.00 | 0.00 | 0.00 | 60 | 1018.9 |
| 20260503051452 | 47 | 127 | 3.0 | 17.0 | 0.00 | 0.00 | 0.00 | 60 | 1018.9 |
| 20260503050950 | 47 | 108 | 5.0 | 16.0 | 0.00 | 0.00 | 0.00 | 59 | 1019.1 |
| 20260503050445 | 47 | 94 | 4.0 | 15.0 | 0.00 | 0.00 | 0.00 | 60 | 1019.0 |
| 20260503045943 | 48 | 149 | 4.0 | 11.0 | 0.00 | 0.00 | 0.00 | 59 | 1019.0 |
| 20260503045440 | 48 | 161 | 2.0 | 12.0 | 0.00 | 0.00 | 0.00 | 58 | 1018.6 |
| 20260503044937 | 48 | 161 | 4.0 | 14.0 | 0.00 | 0.00 | 0.00 | 58 | 1018.5 |
| 20260503044434 | 48 | 69 | 6.0 | 16.0 | 0.00 | 0.00 | 0.00 | 58 | 1018.7 |
| 20260503043931 | 48 | 120 | 5.0 | 13.0 | 0.00 | 0.00 | 0.00 | 57 | 1018.7 |
| 20260503043427 | 49 | 158 | 5.0 | 12.0 | 0.00 | 0.00 | 0.00 | 57 | 1018.6 |
| 20260503042924 | 48 | 144 | 4.0 | 8.0 | 0.00 | 0.00 | 0.00 | 58 | 1018.7 |
| 20260503042421 | 48 | 160 | 5.0 | 11.0 | 0.00 | 0.00 | 0.00 | 57 | 1018.6 |
| 20260503041917 | 48 | 106 | 3.0 | 15.0 | 0.00 | 0.00 | 0.00 | 57 | 1018.5 |
| 20260503041414 | 49 | 150 | 7.0 | 19.0 | 0.00 | 0.00 | 0.00 | 56 | 1018.6 |
| 20260503040912 | 49 | 193 | 3.0 | 17.0 | 0.00 | 0.00 | 0.00 | 55 | 1018.5 |
| 20260503040409 | 50 | 81 | 3.0 | 13.0 | 0.00 | 0.00 | 0.00 | 53 | 1018.6 |
| 20260503035906 | 50 | 121 | 2.0 | 9.0 | 0.00 | 0.00 | 0.00 | 53 | 1018.2 |
| 20260503035403 | 50 | 112 | 5.0 | 13.0 | 0.00 | 0.00 | 0.00 | 53 | 1018.1 |
| 20260503034900 | 50 | 121 | 6.0 | 18.0 | 0.00 | 0.00 | 0.00 | 54 | 1018.2 |
| 20260503034358 | 50 | 149 | 15.0 | 15.0 | 0.00 | 0.00 | 0.00 | 53 | 1018.1 |
| 20260503033854 | 50 | 135 | 7.0 | 9.0 | 0.00 | 0.00 | 0.00 | 54 | 1018.1 |
| 20260503033352 | 50 | 111 | 3.0 | 13.0 | 0.00 | 0.00 | 0.00 | 54 | 1018.1 |
| 20260503032850 | 51 | 204 | 2.0 | 15.0 | 0.00 | 0.00 | 0.00 | 53 | 1018.2 |
| 20260503032349 | 51 | 95 | 5.0 | 14.0 | 0.00 | 0.00 | 0.00 | 52 | 1018.2 |
| 20260503031846 | 52 | 153 | 7.0 | 16.0 | 0.00 | 0.00 | 0.00 | 51 | 1018.1 |
| 20260503031343 | 52 | 127 | 2.0 | 13.0 | 0.00 | 0.00 | 0.00 | 52 | 1018.2 |
| 20260503030839 | 51 | 129 | 2.0 | 13.0 | 0.00 | 0.00 | 0.00 | 52 | 1018.2 |
| 20260503030336 | 52 | 84 | 3.0 | 19.0 | 0.00 | 0.00 | 0.00 | 51 | 1018.0 |
| 20260503025833 | 53 | 134 | 4.0 | 8.0 | 0.00 | 0.00 | 0.00 | 52 | 1018.0 |
| 20260503025330 | 52 | 118 | 6.0 | 16.0 | 0.00 | 0.00 | 0.00 | 52 | 1018.1 |
| 20260503024827 | 52 | 53 | 0.0 | 17.0 | 0.00 | 0.00 | 0.00 | 52 | 1018.1 |
| 20260503024324 | 52 | 47 | 3.0 | 13.0 | 0.00 | 0.00 | 0.00 | 52 | 1018.1 |
| 20260503023821 | 52 | 140 | 7.0 | 10.0 | 0.00 | 0.00 | 0.00 | 52 | 1018.0 |
| 20260503023318 | 52 | 77 | 4.0 | 13.0 | 0.00 | 0.00 | 0.00 | 51 | 1018.2 |
| 20260503022815 | 51 | 125 | 3.0 | 18.0 | 0.00 | 0.00 | 0.00 | 53 | 1018.2 |
| 20260503022314 | 51 | 71 | 5.0 | 13.0 | 0.00 | 0.00 | 0.00 | 51 | 1018.1 |
| 20260503021811 | 52 | 135 | 8.0 | 10.0 | 0.00 | 0.00 | 0.00 | 51 | 1018.1 |
| 20260503021308 | 52 | 68 | 0.0 | 11.0 | 0.00 | 0.00 | 0.00 | 50 | 1018.2 |
| 20260503020805 | 53 | 151 | 13.0 | 13.0 | 0.00 | 0.00 | 0.00 | 49 | 1017.9 |
| 20260503020303 | 52 | 135 | 3.0 | 12.0 | 0.00 | 0.00 | 0.00 | 50 | 1017.9 |
| 20260503015759 | 52 | 148 | 7.0 | 17.0 | 0.00 | 0.00 | 0.00 | 50 | 1017.7 |
| 20260503015256 | 53 | 125 | 3.0 | 16.0 | 0.00 | 0.00 | 0.00 | 49 | 1017.8 |
| 20260503014751 | 53 | 144 | 3.0 | 12.0 | 0.00 | 0.00 | 0.00 | 48 | 1017.8 |
| 20260503014250 | 53 | 129 | 2.0 | 21.0 | 0.00 | 0.00 | 0.00 | 47 | 1017.6 |
| 20260503013747 | 55 | 131 | 4.0 | 14.0 | 0.00 | 0.00 | 0.00 | 46 | 1017.6 |
| 20260503013244 | 54 | 131 | 4.0 | 16.0 | 0.00 | 0.00 | 0.00 | 48 | 1017.8 |
| 20260503012741 | 54 | 9 | 7.0 | 20.0 | 0.00 | 0.00 | 0.00 | 48 | 1017.7 |
| 20260503012238 | 53 | 198 | 11.0 | 20.0 | 0.00 | 0.00 | 0.00 | 49 | 1017.6 |
| 20260503011735 | 53 | 105 | 0.0 | 23.0 | 0.00 | 0.00 | 0.00 | 49 | 1017.7 |
| 20260503011232 | 53 | 97 | 3.0 | 24.0 | 0.00 | 0.00 | 0.00 | 48 | 1017.7 |
| 20260503010728 | 53 | 90 | 3.0 | 14.0 | 0.00 | 0.00 | 0.00 | 49 | 1017.4 |
| 20260503010225 | 54 | 137 | 3.0 | 10.0 | 0.00 | 0.00 | 0.00 | 48 | 1017.7 |
| 20260503005723 | 54 | 163 | 5.0 | 15.0 | 0.00 | 0.00 | 0.00 | 47 | 1017.7 |
| 20260503005220 | 53 | 134 | 11.0 | 12.0 | 0.00 | 0.00 | 0.00 | 47 | 1017.4 |
| 20260503004716 | 54 | 158 | 4.0 | 10.0 | 0.00 | 0.00 | 0.00 | 47 | 1017.6 |
| 20260503004214 | 55 | 230 | 3.0 | 13.0 | 0.00 | 0.00 | 0.00 | 46 | 1017.5 |
| 20260503003711 | 54 | 154 | 10.0 | 12.0 | 0.00 | 0.00 | 0.00 | 45 | 1017.4 |
| 20260503003208 | 55 | 145 | 10.0 | 12.0 | 0.00 | 0.00 | 0.00 | 44 | 1017.5 |
| 20260503002705 | 55 | 194 | 5.0 | 10.0 | 0.00 | 0.00 | 0.00 | 46 | 1017.3 |
| 20260503002202 | 55 | 77 | 4.0 | 13.0 | 0.00 | 0.00 | 0.00 | 46 | 1017.4 |
| 20260503001657 | 55 | 109 | 5.0 | 11.0 | 0.00 | 0.00 | 0.00 | 44 | 1017.2 |
| 20260503001154 | 56 | 134 | 5.0 | 16.0 | 0.00 | 0.00 | 0.00 | 44 | 1017.4 |
| 20260503000652 | 56 | 166 | 4.0 | 16.0 | 0.00 | 0.00 | 0.00 | 43 | 1017.1 |
| 20260503000149 | 56 | 146 | 4.0 | 8.0 | 0.00 | 0.00 | 0.00 | 44 | 1017.0 |
| 20260502235646 | 56 | 90 | 5.0 | 11.0 | 0.00 | 0.00 | 0.00 | 44 | 1016.9 |
| 20260502235144 | 56 | 123 | 3.0 | 14.0 | 0.00 | 0.00 | 0.00 | 44 | 1017.2 |
| 20260502234640 | 55 | 120 | 7.0 | 13.0 | 0.00 | 0.00 | 0.00 | 45 | 1016.9 |
| 20260502234137 | 56 | 154 | 4.0 | 16.0 | 0.00 | 0.00 | 0.00 | 45 | 1017.3 |
| 20260502233633 | 56 | 132 | 4.0 | 9.0 | 0.00 | 0.00 | 0.00 | 45 | 1017.0 |
| 20260502233130 | 56 | 74 | 3.0 | 16.0 | 0.00 | 0.00 | 0.00 | 44 | 1017.1 |
| 20260502232626 | 54 | 158 | 5.0 | 10.0 | 0.00 | 0.00 | 0.00 | 47 | 1016.9 |
| 20260502232123 | 54 | 135 | 3.0 | 12.0 | 0.00 | 0.00 | 0.00 | 46 | 1016.9 |
| 20260502231620 | 53 | 180 | 6.0 | 11.0 | 0.00 | 0.00 | 0.00 | 47 | 1016.6 |
| 20260502231118 | 54 | 121 | 3.0 | 21.0 | 0.00 | 0.00 | 0.00 | 46 | 1016.9 |
| 20260502230616 | 53 | 166 | 6.0 | 15.0 | 0.00 | 0.00 | 0.00 | 46 | 1016.6 |
| 20260502230114 | 54 | 101 | 3.0 | 9.0 | 0.00 | 0.00 | 0.00 | 44 | 1016.7 |
| 20260502225609 | 54 | 200 | 3.0 | 17.0 | 0.00 | 0.00 | 0.00 | 44 | 1016.6 |
| 20260502225107 | 56 | 345 | 3.0 | 14.0 | 0.00 | 0.00 | 0.00 | 42 | 1016.6 |
| 20260502224603 | 57 | 187 | 5.0 | 22.0 | 0.00 | 0.00 | 0.00 | 43 | 1016.6 |
| 20260502224100 | 56 | 198 | 6.0 | 14.0 | 0.00 | 0.00 | 0.00 | 44 | 1016.6 |
| 20260502223558 | 58 | 321 | 5.0 | 13.0 | 0.00 | 0.00 | 0.00 | 44 | 1016.6 |
| 20260502223056 | 57 | 164 | 5.0 | 17.0 | 0.00 | 0.00 | 0.00 | 43 | 1016.5 |
| 20260502222553 | 55 | 208 | 9.0 | 12.0 | 0.00 | 0.00 | 0.00 | 43 | 1016.5 |
| 20260502222049 | 55 | 174 | 8.0 | 16.0 | 0.00 | 0.00 | 0.00 | 45 | 1016.1 |
| 20260502221545 | 55 | 156 | 3.0 | 10.0 | 0.00 | 0.00 | 0.00 | 45 | 1016.1 |
| 20260502221042 | 55 | 157 | 5.0 | 11.0 | 0.00 | 0.00 | 0.00 | 46 | 1016.2 |
| 20260502220538 | 54 | 45 | 9.0 | 12.0 | 0.00 | 0.00 | 0.00 | 47 | 1016.1 |
| 20260502220035 | 54 | 121 | 7.0 | 9.0 | 0.00 | 0.00 | 0.00 | 46 | 1016.1 |
| 20260502215532 | 55 | 0 | 0.0 | 12.0 | 0.00 | 0.00 | 0.00 | 46 | 1016.1 |
| 20260502215029 | 54 | 138 | 7.0 | 15.0 | 0.00 | 0.00 | 0.00 | 46 | 1016.0 |
| 20260502214526 | 54 | 110 | 4.0 | 9.0 | 0.00 | 0.00 | 0.00 | 47 | 1015.8 |
| 20260502214024 | 55 | 177 | 2.0 | 17.0 | 0.00 | 0.00 | 0.00 | 47 | 1015.9 |
| 20260502213520 | 55 | 98 | 4.0 | 8.0 | 0.00 | 0.00 | 0.00 | 47 | 1015.9 |
| 20260502213018 | 53 | 158 | 4.0 | 13.0 | 0.00 | 0.00 | 0.00 | 48 | 1016.0 |
| 20260502212517 | 53 | 306 | 1.0 | 13.0 | 0.00 | 0.00 | 0.00 | 48 | 1016.0 |
| 20260502212014 | 53 | 163 | 6.0 | 12.0 | 0.00 | 0.00 | 0.00 | 49 | 1016.0 |
| 20260502211509 | 54 | 107 | 2.0 | 13.0 | 0.00 | 0.00 | 0.00 | 48 | 1016.0 |
| 20260502211007 | 55 | 149 | 10.0 | 12.0 | 0.00 | 0.00 | 0.00 | 48 | 1015.7 |
| 20260502210503 | 53 | 120 | 3.0 | 10.0 | 0.00 | 0.00 | 0.00 | 51 | 1016.1 |
| 20260502210001 | 53 | 24 | 6.0 | 11.0 | 0.00 | 0.00 | 0.00 | 51 | 1016.1 |
| 20260502205456 | 53 | 68 | 0.0 | 13.0 | 0.00 | 0.00 | 0.00 | 52 | 1016.0 |
| 20260502204954 | 51 | 180 | 2.0 | 12.0 | 0.00 | 0.00 | 0.00 | 55 | 1016.1 |